• In Belarus
  • List of Countries
  • For 7 days
  • Water Temperature
  • Satellite Maps
  • Weather Map
  • Weather Widgets
  • user-avatar
    Login

    Hourly Weather Bansko

    Today, 17 July, Wednesday

    Time Temperature Precipitation Wind Pressure Humidity
    00:00 +15°C° 0 mm 1 mps 717 mmHg 92%
    01:00 +15°C° 0 mm 1 mps 717 mmHg 92%
    02:00 +15°C° 0 mm 1 mps 717 mmHg 94%
    03:00 +15°C° 0 mm 1 mps 717 mmHg 93%
    04:00 +14°C° 0 mm 1 mps 717 mmHg 92%
    05:00 +14°C° 0 mm 1 mps 717 mmHg 92%
    06:00 +16°C° 0 mm 1 mps 717 mmHg 87%
    07:00 +17°C° 0 mm 2 mps 717 mmHg 83%
    08:00 +19°C° 0 mm 2 mps 718 mmHg 78%
    09:00 +21°C° 0 mm 2 mps 718 mmHg 70%
    10:00 +23°C° 0 mm 2 mps 718 mmHg 62%
    11:00 +25°C° 0 mm 3 mps 718 mmHg 54%
    12:00 +25°C° 0 mm 3 mps 718 mmHg 53%
    13:00 +26°C° 0 mm 3 mps 718 mmHg 52%
    14:00 +26°C° 0 mm 3 mps 718 mmHg 51%
    15:00 +26°C° 0.1 mm 3 mps 718 mmHg 54%
    16:00 +26°C° 0.1 mm 3 mps 717 mmHg 56%
    17:00 +26°C° 0.1 mm 4 mps 717 mmHg 59%
    18:00 +24°C° 0.1 mm 3 mps 717 mmHg 65%
    19:00 +21°C° 0.1 mm 2 mps 717 mmHg 72%
    20:00 +19°C° 0.1 mm 2 mps 717 mmHg 78%
    21:00 +18°C° 0 mm 2 mps 717 mmHg 80%
    22:00 +18°C° 0 mm 1 mps 717 mmHg 82%
    23:00 +18°C° 0 mm 1 mps 718 mmHg 83%

    Tomorrow, 18 July, Thursday

    Time Temperature Precipitation Wind Pressure Humidity
    00:00 +16°C° 0 mm 1 mps 718 mmHg 85%
    01:00 +16°C° 0 mm 1 mps 718 mmHg 86%
    02:00 +15°C° 0 mm 1 mps 717 mmHg 87%
    03:00 +15°C° 0 mm 1 mps 717 mmHg 88%
    04:00 +14°C° 0 mm 0 mps 717 mmHg 88%
    05:00 +13°C° 0 mm 0 mps 717 mmHg 89%
    06:00 +16°C° 0 mm 1 mps 718 mmHg 83%
    07:00 +19°C° 0 mm 1 mps 718 mmHg 78%
    08:00 +21°C° 0 mm 1 mps 718 mmHg 73%
    09:00 +22°C° 0 mm 1 mps 718 mmHg 65%
    10:00 +24°C° 0 mm 1 mps 719 mmHg 57%
    11:00 +26°C° 0 mm 1 mps 719 mmHg 49%
    12:00 +27°C° 0 mm 1 mps 719 mmHg 47%
    13:00 +27°C° 0 mm 1 mps 719 mmHg 44%
    14:00 +28°C° 0 mm 1 mps 719 mmHg 41%
    15:00 +28°C° 0.1 mm 1 mps 719 mmHg 42%
    16:00 +28°C° 0.1 mm 1 mps 719 mmHg 43%
    17:00 +28°C° 0.1 mm 1 mps 719 mmHg 44%
    18:00 +26°C° 0 mm 1 mps 719 mmHg 51%
    19:00 +24°C° 0 mm 1 mps 719 mmHg 58%
    20:00 +22°C° 0 mm 1 mps 719 mmHg 65%
    21:00 +21°C° 0 mm 1 mps 719 mmHg 68%
    22:00 +20°C° 0 mm 1 mps 719 mmHg 70%
    23:00 +19°C° 0 mm 1 mps 720 mmHg 73%

    Day after tomorrow, 19 July, Friday

    Time Temperature Precipitation Wind Pressure Humidity
    00:00 +19°C° 0 mm 1 mps 720 mmHg 75%
    01:00 +19°C° 0 mm 1 mps 720 mmHg 77%
    02:00 +18°C° 0 mm 1 mps 720 mmHg 79%
    03:00 +18°C° 0 mm 1 mps 720 mmHg 80%
    04:00 +18°C° 0 mm 1 mps 720 mmHg 80%
    05:00 +15°C° 0 mm 0 mps 720 mmHg 81%
    06:00 +17°C° 0 mm 0 mps 720 mmHg 75%
    07:00 +19°C° 0 mm 0 mps 721 mmHg 70%
    08:00 +21°C° 0 mm 0 mps 721 mmHg 65%
    09:00 +23°C° 0.2 mm 0 mps 721 mmHg 61%
    10:00 +24°C° 0.2 mm 0 mps 722 mmHg 57%
    11:00 +28°C° 0.2 mm 1 mps 722 mmHg 53%
    12:00 +29°C° 0.4 mm 1 mps 722 mmHg 51%
    13:00 +29°C° 0.4 mm 1 mps 722 mmHg 49%
    14:00 +30°C° 0.4 mm 1 mps 721 mmHg 47%
    15:00 +29°C° 0.5 mm 1 mps 721 mmHg 48%
    16:00 +29°C° 0.5 mm 1 mps 721 mmHg 50%
    17:00 +27°C° 0.5 mm 0 mps 721 mmHg 51%
    18:00 +27°C° 0.2 mm 1 mps 721 mmHg 56%
    19:00 +25°C° 0.2 mm 1 mps 721 mmHg 62%
    20:00 +23°C° 0.2 mm 1 mps 721 mmHg 67%
    21:00 +22°C° 0.2 mm 1 mps 721 mmHg 70%
    22:00 +21°C° 0.2 mm 1 mps 721 mmHg 74%
    23:00 +20°C° 0.2 mm 1 mps 722 mmHg 77%

    20 July, Saturday

    Time Temperature Precipitation Wind Pressure Humidity
    00:00 +20°C° 0 mm 1 mps 722 mmHg 78%
    01:00 +19°C° 0 mm 1 mps 722 mmHg 79%
    02:00 +19°C° 0 mm 1 mps 722 mmHg 80%
    03:00 +19°C° 0 mm 1 mps 722 mmHg 80%
    04:00 +18°C° 0 mm 1 mps 722 mmHg 80%
    05:00 +18°C° 0 mm 1 mps 722 mmHg 81%
    06:00 +20°C° 0 mm 1 mps 722 mmHg 76%
    07:00 +22°C° 0 mm 1 mps 722 mmHg 72%
    08:00 +24°C° 0 mm 1 mps 723 mmHg 67%
    09:00 +25°C° 0 mm 1 mps 723 mmHg 61%
    10:00 +27°C° 0 mm 1 mps 723 mmHg 54%
    11:00 +29°C° 0 mm 1 mps 723 mmHg 48%
    12:00 +29°C° 0.2 mm 1 mps 723 mmHg 46%
    13:00 +30°C° 0.2 mm 1 mps 723 mmHg 44%
    14:00 +31°C° 0.2 mm 2 mps 723 mmHg 42%
    15:00 +30°C° 0.1 mm 2 mps 723 mmHg 43%
    16:00 +30°C° 0.1 mm 2 mps 722 mmHg 43%
    17:00 +30°C° 0.1 mm 1 mps 722 mmHg 44%
    18:00 +28°C° 0 mm 1 mps 722 mmHg 50%
    19:00 +26°C° 0 mm 1 mps 722 mmHg 56%
    20:00 +24°C° 0 mm 1 mps 722 mmHg 61%
    21:00 +23°C° 0 mm 1 mps 723 mmHg 63%
    22:00 +22°C° 0 mm 1 mps 723 mmHg 65%
    23:00 +21°C° 0 mm 1 mps 723 mmHg 67%

    21 July, Sunday

    Time Temperature Precipitation Wind Pressure Humidity
    00:00 +21°C° 0 mm 1 mps 723 mmHg 69%
    01:00 +20°C° 0 mm 1 mps 723 mmHg 71%
    02:00 +20°C° 0 mm 1 mps 723 mmHg 73%
    03:00 +20°C° 0 mm 1 mps 723 mmHg 74%
    04:00 +19°C° 0 mm 1 mps 723 mmHg 75%
    05:00 +19°C° 0 mm 1 mps 723 mmHg 76%
    06:00 +21°C° 0 mm 1 mps 723 mmHg 71%
    07:00 +23°C° 0 mm 1 mps 723 mmHg 66%
    08:00 +25°C° 0 mm 1 mps 724 mmHg 61%
    09:00 +26°C° 0 mm 1 mps 724 mmHg 56%
    10:00 +28°C° 0 mm 1 mps 724 mmHg 51%
    11:00 +30°C° 0 mm 2 mps 724 mmHg 46%
    12:00 +30°C° 0 mm 2 mps 724 mmHg 45%
    13:00 +31°C° 0 mm 1 mps 724 mmHg 43%
    14:00 +31°C° 0 mm 1 mps 724 mmHg 42%
    15:00 +31°C° 0 mm 1 mps 723 mmHg 43%
    16:00 +31°C° 0 mm 1 mps 723 mmHg 44%
    17:00 +31°C° 0 mm 1 mps 723 mmHg 45%
    18:00 +29°C° 0 mm 1 mps 723 mmHg 52%
    19:00 +27°C° 0 mm 2 mps 723 mmHg 60%
    20:00 +25°C° 0 mm 2 mps 723 mmHg 68%
    21:00 +24°C° 0 mm 1 mps 723 mmHg 70%
    22:00 +23°C° 0 mm 1 mps 723 mmHg 73%
    23:00 +22°C° 0 mm 1 mps 723 mmHg 75%

    22 July, Monday

    Time Temperature Precipitation Wind Pressure Humidity
    00:00 +22°C° 0 mm 1 mps 723 mmHg 75%
    01:00 +21°C° 0 mm 1 mps 723 mmHg 76%
    02:00 +21°C° 0 mm 1 mps 723 mmHg 76%
    03:00 +20°C° 0 mm 1 mps 723 mmHg 77%
    04:00 +20°C° 0 mm 1 mps 723 mmHg 78%
    05:00 +20°C° 0 mm 1 mps 723 mmHg 79%
    06:00 +22°C° 0 mm 1 mps 723 mmHg 73%
    07:00 +24°C° 0 mm 1 mps 723 mmHg 68%
    08:00 +26°C° 0 mm 1 mps 723 mmHg 63%
    09:00 +27°C° 0 mm 1 mps 724 mmHg 58%
    10:00 +29°C° 0 mm 2 mps 724 mmHg 53%
    11:00 +30°C° 0 mm 2 mps 724 mmHg 48%
    12:00 +31°C° 0.1 mm 2 mps 723 mmHg 47%
    13:00 +31°C° 0.1 mm 2 mps 723 mmHg 47%
    14:00 +32°C° 0.1 mm 2 mps 722 mmHg 46%
    15:00 +32°C° 0.1 mm 2 mps 722 mmHg 47%
    16:00 +33°C° 0.1 mm 3 mps 722 mmHg 48%
    17:00 +31°C° 0.1 mm 3 mps 722 mmHg 48%
    18:00 +29°C° 0.1 mm 2 mps 721 mmHg 56%
    19:00 +27°C° 0.1 mm 2 mps 721 mmHg 63%
    20:00 +25°C° 0.1 mm 2 mps 721 mmHg 70%
    21:00 +24°C° 0 mm 2 mps 721 mmHg 72%
    22:00 +23°C° 0 mm 1 mps 721 mmHg 73%
    23:00 +22°C° 0 mm 1 mps 722 mmHg 75%
    Show more